Creston, IA

3:05 PM CDT on June 27, 2017 (GMT -0500)
Creston Municipal

Weather History for KCSQ - December, 2013

Change the Weather History Date:

Tuesday, December 24, 2013

  Actual Average Record
Temperature  
Mean Temperature 2 °F -  
Max Temperature 19 °F 31 °F 58 °F (1964)
Min Temperature -16 °F 12 °F -20 °F (1983)
Degree Days  
Heating Degree Days 64    
Moisture  
Dew Point -4 °F    
Average Humidity 74    
Maximum Humidity 93    
Minimum Humidity 61    
Precipitation  
Precipitation 0.00 in - - ()
Sea Level Pressure  
Sea Level Pressure 30.32 in    
Wind  
Wind Speed 8 mph (South)    
Max Wind Speed 22 mph    
Max Gust Speed 23 mph    
Visibility 9 miles    
Events Snow    
Averages and records for this station are not official NWS values.
T = Trace of Precipitation, MM = Missing Value Source: NWS Daily Summary

Daily Weather History Graph

Daily Weather History Graph

Search for Another Location

Airport or City:

Trip Planner

Search our weather history database for the weather conditions in past years. The results will help you decide how hot, cold, wet, or windy it might be!

Date:

Astronomy

Dec. 24, 2013 Rise Set
Actual Time 7:40 AM CST 4:54 PM CST
Civil Twilight 7:09 AM CST 5:25 PM CST
Nautical Twilight 6:34 AM CST 5:59 PM CST
Astronomical Twilight 6:01 AM CST 6:33 PM CST
Moon No Moon Rise 11:31 AM CST (12/24)
Length of Visible Light 10h 15m
Length of Day
9h 13m
Waning Gibbous, 58% of the Moon is Illuminated
Dec 24
Waning Gibbous
Dec 25
Last Quarter
Jan 1
New
Jan 7
First Quarter
Jan 15
Full

Hourly Weather History & Observations

Time (CST) Temp. Windchill Dew Point Humidity Pressure Visibility Wind Dir Wind Speed Gust Speed Precip Events Conditions
12:15 AM -7.6 °F - -14.8 °F 71% 30.52 in 10.0 mi Calm Calm - N/A   Clear
12:35 AM -7.6 °F -18.8 °F -16.6 °F 65% 30.52 in 10.0 mi West 4.6 mph - N/A   Clear
12:55 AM -9.4 °F -24.3 °F -16.6 °F 71% 30.52 in 10.0 mi West 6.9 mph - N/A   Clear
1:15 AM -7.6 °F -20.6 °F -16.6 °F 65% 30.52 in 10.0 mi West 5.8 mph - N/A   Clear
1:35 AM -9.4 °F -20.9 °F -16.6 °F 71% 30.51 in 10.0 mi West 4.6 mph - N/A   Clear
1:55 AM -11.2 °F -20.6 °F -18.4 °F 70% 30.50 in 10.0 mi WNW 3.5 mph - N/A   Clear
2:15 AM -13.0 °F - -20.2 °F 70% 30.50 in 10.0 mi Calm Calm - N/A   Clear
2:35 AM -11.2 °F - -18.4 °F 70% 30.50 in 10.0 mi Calm Calm - N/A   Clear
2:55 AM -14.8 °F - -22.0 °F 70% 30.49 in 10.0 mi Calm Calm - N/A   Clear
3:15 AM -14.8 °F - -22.0 °F 70% 30.48 in 10.0 mi Calm Calm - N/A   Clear
3:35 AM -11.2 °F - -18.4 °F 70% 30.48 in 10.0 mi Calm Calm - N/A   Clear
3:55 AM -13.0 °F -25.1 °F -20.2 °F 70% 30.46 in 10.0 mi East 4.6 mph - N/A   Clear
4:15 AM -14.8 °F -27.2 °F -20.2 °F 77% 30.46 in 10.0 mi SSW 4.6 mph - N/A   Clear
4:35 AM -14.8 °F - -23.8 °F 64% 30.46 in 10.0 mi Calm Calm - N/A   Clear
4:55 AM -13.0 °F -27.0 °F -20.2 °F 70% 30.46 in 10.0 mi South 5.8 mph - N/A   Clear
5:15 AM -16.6 °F -31.3 °F -25.6 °F 64% 30.45 in 10.0 mi SSE 5.8 mph - N/A   Clear
5:35 AM -16.6 °F -31.3 °F -23.8 °F 70% 30.44 in 10.0 mi SE 5.8 mph - N/A   Clear
5:55 AM -14.8 °F -29.1 °F -23.8 °F 64% 30.45 in 10.0 mi SSE 5.8 mph - N/A   Clear
6:15 AM -14.8 °F -33.5 °F -22.0 °F 70% 30.44 in 10.0 mi South 9.2 mph - N/A   Clear
6:35 AM -13.0 °F -28.6 °F -22.0 °F 64% 30.44 in 10.0 mi South 6.9 mph - N/A   Clear
6:55 AM -13.0 °F -28.6 °F -20.2 °F 70% 30.43 in 8.0 mi SSE 6.9 mph - N/A   Clear
7:15 AM -9.4 °F -25.6 °F -16.6 °F 71% 30.42 in 10.0 mi SSE 8.1 mph - N/A   Clear
7:35 AM -9.4 °F -25.6 °F -14.8 °F 77% 30.42 in 10.0 mi South 8.1 mph - N/A   Clear
7:55 AM -7.6 °F -24.6 °F -14.8 °F 71% 30.42 in 9.0 mi South 9.2 mph - N/A   Clear
8:15 AM -7.6 °F -24.6 °F -13.0 °F 77% 30.41 in 5.0 mi SSE 9.2 mph - N/A   Haze
8:35 AM -2.2 °F -20.7 °F -7.6 °F 78% 30.40 in 8.0 mi SSE 12.7 mph - N/A   Clear
8:55 AM -4.0 °F -22.1 °F -9.4 °F 78% 30.39 in 9.0 mi SSE 11.5 mph - N/A   Clear
9:15 AM -2.2 °F -20.7 °F -7.6 °F 78% 30.40 in 9.0 mi SSE 12.7 mph - N/A   Clear
9:35 AM -0.4 °F -18.4 °F -5.8 °F 78% 30.39 in 9.0 mi SSE 12.7 mph - N/A   Scattered Clouds
9:55 AM 1.4 °F -16.1 °F -4.0 °F 78% 30.39 in 10.0 mi SSE 12.7 mph - N/A   Overcast
10:15 AM 5.0 °F -11.6 °F -4.0 °F 66% 30.38 in 10.0 mi SSE 12.7 mph - N/A   Overcast
10:35 AM 5.0 °F -12.3 °F -4.0 °F 66% 30.39 in 10.0 mi SSE 13.8 mph - N/A   Overcast
10:55 AM 5.0 °F -11.6 °F -4.0 °F 66% 30.38 in 10.0 mi SSE 12.7 mph - N/A   Overcast
11:15 AM 6.8 °F -11.8 °F -4.0 °F 61% 30.37 in 10.0 mi SSE 17.3 mph - N/A   Overcast
11:35 AM 6.8 °F -10.7 °F -4.0 °F 61% 30.35 in 9.0 mi SSE 15.0 mph 20.7 mph N/A   Mostly Cloudy
11:55 AM 6.8 °F -10.7 °F -4.0 °F 61% 30.35 in 10.0 mi SSE 15.0 mph - N/A   Mostly Cloudy
12:15 PM 6.8 °F -11.8 °F -4.0 °F 61% 30.33 in 10.0 mi SSE 17.3 mph - N/A   Mostly Cloudy
12:35 PM 6.8 °F -10.7 °F -2.2 °F 67% 30.31 in 10.0 mi SSE 15.0 mph - N/A   Mostly Cloudy
12:55 PM 6.8 °F -11.8 °F -2.2 °F 67% 30.28 in 10.0 mi SSE 17.3 mph - N/A   Mostly Cloudy
1:15 PM 8.6 °F -10.0 °F -0.4 °F 67% 30.26 in 10.0 mi SSE 18.4 mph - N/A   Mostly Cloudy
1:35 PM 8.6 °F -10.5 °F -0.4 °F 67% 30.25 in 10.0 mi SSE 19.6 mph - N/A   Mostly Cloudy
1:55 PM 8.6 °F -10.0 °F -0.4 °F 67% 30.23 in 10.0 mi SSE 18.4 mph - N/A   Scattered Clouds
2:15 PM 8.6 °F -11.0 °F 1.4 °F 73% 30.20 in 10.0 mi SE 20.7 mph - N/A   Clear
2:35 PM 10.4 °F -8.6 °F 1.4 °F 67% 30.19 in 10.0 mi SE 20.7 mph - N/A   Partly Cloudy
2:55 PM 10.4 °F -6.6 °F 1.4 °F 67% 30.18 in 8.0 mi SE 16.1 mph 23.0 mph N/A   Mostly Cloudy
3:15 PM 10.4 °F -6.6 °F 3.2 °F 73% 30.18 in 10.0 mi SE 16.1 mph - N/A   Mostly Cloudy
3:35 PM 10.4 °F -9.1 °F 3.2 °F 73% 30.17 in 10.0 mi SSE 21.9 mph - N/A   Overcast
3:55 PM 12.2 °F -5.3 °F 3.2 °F 67% 30.18 in 10.0 mi SSE 18.4 mph - N/A   Overcast
4:15 PM 12.2 °F -3.7 °F 3.2 °F 67% 30.19 in 10.0 mi SSE 15.0 mph 23.0 mph N/A   Overcast
4:35 PM 12.2 °F -1.8 °F 3.2 °F 67% 30.19 in 10.0 mi South 11.5 mph - N/A   Mostly Cloudy
4:55 PM 12.2 °F -4.8 °F 5.0 °F 73% 30.17 in 10.0 mi South 17.3 mph - N/A   Overcast
5:15 PM 12.2 °F -3.1 °F 5.0 °F 73% 30.18 in 10.0 mi South 13.8 mph 19.6 mph N/A   Overcast
5:35 PM 12.2 °F -4.3 °F 5.0 °F 73% 30.20 in 10.0 mi South 16.1 mph - N/A   Overcast
5:55 PM 12.2 °F -3.7 °F 5.0 °F 73% 30.20 in 10.0 mi South 15.0 mph - N/A   Overcast
6:15 PM 14.0 °F 0.5 °F 6.8 °F 73% 30.20 in 10.0 mi South 11.5 mph - N/A   Overcast
6:35 PM 14.0 °F 1.2 °F 6.8 °F 73% 30.20 in 10.0 mi South 10.4 mph - N/A   Overcast
6:55 PM 14.0 °F 2.0 °F 6.8 °F 73% 30.20 in 10.0 mi SSE 9.2 mph - N/A   Overcast
7:15 PM 14.0 °F 2.0 °F 8.6 °F 79% 30.21 in 10.0 mi SSE 9.2 mph - N/A   Overcast
7:35 PM 14.0 °F 2.9 °F 8.6 °F 79% 30.21 in 10.0 mi South 8.1 mph - N/A   Overcast
7:55 PM 14.0 °F 2.0 °F 8.6 °F 79% 30.20 in 10.0 mi South 9.2 mph - N/A   Overcast
8:15 PM 15.8 °F 4.2 °F 10.4 °F 79% 30.19 in 10.0 mi South 9.2 mph - N/A   Overcast
8:35 PM 15.8 °F 2.7 °F 12.2 °F 86% 30.19 in 10.0 mi South 11.5 mph - N/A   Overcast
8:55 PM 15.8 °F 2.7 °F 12.2 °F 86% 30.20 in 10.0 mi South 11.5 mph - N/A   Overcast
9:15 PM 15.8 °F 3.4 °F 14.0 °F 93% 30.19 in 9.0 mi South 10.4 mph - N/A   Overcast
9:35 PM 15.8 °F 2.1 °F 14.0 °F 93% 30.18 in 5.0 mi South 12.7 mph - N/A   Overcast
9:55 PM 17.6 °F 5.0 °F 15.8 °F 93% 30.19 in 3.0 mi SSW 11.5 mph - N/A Snow Light Snow
10:15 PM 17.6 °F 4.3 °F 15.8 °F 93% 30.18 in 2.0 mi SSW 12.7 mph - N/A   Overcast
10:35 PM 17.6 °F 5.0 °F 15.8 °F 93% 30.18 in 2.5 mi SSW 11.5 mph - N/A   Overcast
10:55 PM 17.6 °F 5.7 °F 15.8 °F 93% 30.18 in 5.0 mi SSW 10.4 mph - N/A   Overcast
11:15 PM 19.4 °F 7.9 °F 17.6 °F 93% 30.17 in 7.0 mi SSW 10.4 mph - N/A   Overcast
11:35 PM 19.4 °F 8.6 °F 17.6 °F 93% 30.17 in 5.0 mi SSW 9.2 mph - N/A   Overcast
11:55 PM 19.4 °F 7.9 °F 17.6 °F 93% 30.17 in 2.0 mi SW 10.4 mph - N/A   Overcast